Kezdőlap
METAR-TAF:

METAR-TAF

Repülőterek :

Avenger Field

Sweetwater, Texas, Amerikai Egyesült Államok

földrajzi szélesség: 32-28-02N, földrajzi hosszúság: 100-27-59W, magasság: 725 m

Jelenlegi meteorológiai megfigyelések

A jelentés 20 perccel ezelõtt készült, 03:55 UTC
Délkeleti szél 8 kt
Hőmérséklet 27°C
Páratartalom 58%
Légköri nyomás 1021 hPa
Látótávolság: 16.1 km

METAR: KSWW 220355Z AUTO 14008KT 10SM 27/18 A3016 RMK AO2 T02700175

Idő: 23:15 (04:15 UTC)


TAF: hiányzik

Meteorológiai megfigyelések és előrejelzések több, mint 4000 repülőtéren (METAR és TAF jelentéseket).

A térképen piros és sárga pontok jelzik az elérhető meteorológiai állomásokat.

Mozgassa az egeret a pont fölött, hogy megjelenjen az állomás neve.

Azután kattintson az időjárási megfigyelések és előrejelzések megtekintéséhez.

A térkép megváltoztatása: kattintson a fekete keresztel jelölt zöld gombra ráközelítéshez, a vonallal jelölt zöld gombra távolításhoz, vagy a zöld nyilakra a szomszédos térképek eléréséhez.


METAR-TAF: